| time (UTC) | temp C | wind direction | speed KPH | gust KPH | rain 1hr cm | rain 24hr cm | rain mn cm | humidity % | barometer mb |
| 20260505053044 | 12 | 223 | 0.0 | 0.0 | 0.00 | 0.00 | 0.00 | 82 | 1011.1 |
| 20260505051540 | 12 | 197 | 0.0 | 0.0 | 0.00 | 0.00 | 0.00 | 80 | 1011.2 |
| 20260505041531 | 13 | 212 | 0.0 | 3.2 | 0.00 | 0.00 | 0.00 | 75 | 1010.9 |
| 20260505040029 | 13 | 208 | 0.0 | 1.6 | 0.00 | 0.00 | 0.00 | 74 | 1010.9 |
| 20260505034528 | 12 | 220 | 0.0 | 4.8 | 0.00 | 0.00 | 0.00 | 74 | 1010.9 |
| 20260505033035 | 12 | 226 | 0.0 | 1.6 | 0.00 | 0.00 | 0.00 | 74 | 1011.0 |
| 20260505031527 | 12 | 181 | 0.0 | 1.6 | 0.00 | 0.00 | 0.00 | 74 | 1011.1 |
| 20260505030027 | 12 | 201 | 0.0 | 0.0 | 0.00 | 0.00 | 0.00 | 73 | 1011.0 |
| 20260505024549 | 12 | 201 | 0.0 | 0.0 | 0.00 | 0.00 | 0.00 | 72 | 1011.0 |
| 20260505023035 | 13 | 162 | 0.0 | 1.6 | 0.00 | 0.00 | 0.00 | 73 | 1010.9 |
| 20260505021542 | 13 | 199 | 0.0 | 0.0 | 0.00 | 0.00 | 0.00 | 72 | 1011.1 |
| 20260505020024 | 13 | 199 | 0.0 | 0.0 | 0.00 | 0.00 | 0.00 | 68 | 1011.2 |
| 20260505014527 | 14 | 200 | 0.0 | 0.0 | 0.00 | 0.00 | 0.00 | 66 | 1011.2 |
| 20260505013024 | 15 | 216 | 0.0 | 0.0 | 0.00 | 0.00 | 0.00 | 65 | 1011.0 |
| 20260505011527 | 15 | 226 | 0.0 | 1.6 | 0.00 | 0.00 | 0.00 | 65 | 1010.8 |
| 20260505010022 | 15 | 212 | 0.0 | 1.6 | 0.00 | 0.00 | 0.00 | 63 | 1010.7 |
| 20260505004535 | 16 | 230 | 0.0 | 0.0 | 0.00 | 0.00 | 0.00 | 61 | 1010.6 |
| 20260505003022 | 16 | 208 | 0.0 | 3.2 | 0.00 | 0.00 | 0.00 | 58 | 1010.5 |
| 20260505001521 | 17 | 203 | 0.0 | 1.6 | 0.00 | 0.00 | 0.00 | 55 | 1010.4 |
| 20260505000021 | 18 | 213 | 0.0 | 1.6 | 0.00 | 0.00 | 0.00 | 52 | 1010.3 |
| 20260504234521 | 18 | 208 | 0.0 | 9.7 | 0.00 | 0.00 | 0.00 | 50 | 1010.3 |
| 20260504233020 | 19 | 215 | 0.0 | 12.9 | 0.00 | 0.00 | 0.00 | 49 | 1010.4 |
| 20260504231518 | 20 | 206 | 0.0 | 22.5 | 0.00 | 0.00 | 0.00 | 47 | 1010.4 |
| 20260504230018 | 20 | 195 | 0.0 | 12.9 | 0.00 | 0.00 | 0.00 | 46 | 1010.3 |
| 20260504224517 | 21 | 199 | 1.6 | 17.7 | 0.00 | 0.00 | 0.00 | 44 | 1010.4 |
| 20260504223016 | 21 | 214 | 0.0 | 16.1 | 0.00 | 0.00 | 0.00 | 45 | 1010.5 |
| 20260504221513 | 22 | 207 | 4.8 | 25.7 | 0.00 | 0.00 | 0.00 | 43 | 1010.5 |
| 20260504220018 | 22 | 212 | 0.0 | 22.5 | 0.00 | 0.00 | 0.00 | 46 | 1010.5 |
| 20260504214510 | 22 | 210 | 0.0 | 24.1 | 0.00 | 0.00 | 0.00 | 45 | 1010.5 |
| 20260504213010 | 22 | 197 | 6.4 | 24.1 | 0.00 | 0.00 | 0.00 | 44 | 1010.6 |
| 20260504211509 | 22 | 208 | 16.1 | 37.0 | 0.00 | 0.00 | 0.00 | 41 | 1010.5 |
| 20260504210008 | 22 | 187 | 8.0 | 37.0 | 0.00 | 0.00 | 0.00 | 42 | 1010.5 |
| 20260504204515 | 22 | 211 | 1.6 | 30.6 | 0.00 | 0.00 | 0.00 | 43 | 1010.6 |
| 20260504203106 | 22 | 199 | 12.9 | 40.2 | 0.00 | 0.00 | 0.00 | 41 | 1010.6 |
| 20260504201503 | 22 | 219 | 11.3 | 38.6 | 0.00 | 0.00 | 0.00 | 41 | 1010.8 |
| 20260504200002 | 22 | 219 | 6.4 | 30.6 | 0.00 | 0.00 | 0.00 | 43 | 1011.0 |
| 20260504194559 | 22 | 216 | 9.7 | 33.8 | 0.00 | 0.00 | 0.00 | 42 | 1011.3 |
| 20260504193056 | 22 | 197 | 3.2 | 22.5 | 0.00 | 0.00 | 0.00 | 44 | 1011.6 |
| 20260504191554 | 21 | 203 | 11.3 | 37.0 | 0.00 | 0.00 | 0.00 | 44 | 1011.8 |
| 20260504190051 | 22 | 239 | 8.0 | 19.3 | 0.00 | 0.00 | 0.00 | 45 | 1012.0 |
| 20260504184556 | 21 | 221 | 12.9 | 32.2 | 0.00 | 0.00 | 0.00 | 43 | 1012.1 |
| 20260504183048 | 21 | 210 | 3.2 | 24.1 | 0.00 | 0.00 | 0.00 | 42 | 1012.2 |
| 20260504181547 | 21 | 187 | 0.0 | 19.3 | 0.00 | 0.00 | 0.00 | 46 | 1012.4 |
| 20260504180044 | 21 | 222 | 3.2 | 22.5 | 0.00 | 0.00 | 0.00 | 45 | 1012.6 |
| 20260504174545 | 21 | 208 | 3.2 | 24.1 | 0.00 | 0.00 | 0.00 | 47 | 1012.7 |
| 20260504173039 | 21 | 183 | 1.6 | 16.1 | 0.00 | 0.00 | 0.00 | 44 | 1013.0 |
| 20260504171537 | 21 | 205 | 0.0 | 17.7 | 0.00 | 0.00 | 0.00 | 46 | 1013.1 |
| 20260504081506 | 2 | 222 | 0.0 | 0.0 | 0.00 | 0.00 | 0.00 | 83 | 1015.9 |